Regional Weather Roundup
Issued by NWS

Home | Current Version | Previous Version | Graphics & Text | Print | Product List | Glossary On
Versions: 1 2 3 4 5 6 7 8 9 10 11 12 13 14 15 16 17 18 19 20 21 22 23 24 25 26 27 28 29 30 31 32 33 34 35 36 37 38 39 40 41 42 43 44 45 46 47 48 49 50
000
ASUS44 KMEG 211110
RWRTN
TENNESSEE HOURLY STATE WEATHER ROUNDUP
NATIONAL WEATHER SERVICE MEMPHIS TN
600 AM CDT THU SEP 21 2017

TNZ002-004-019-021-049-052-054-088>092-211200-
WEST TENNESSEE

CITY           SKY/WX    TMP DP  RH WIND       PRES   REMARKS
MEMPHIS INTL   CLEAR     73  69  87 CALM      30.04R
NWS MEMPHIS      N/A     72 N/A N/A MISG        N/A
JACKSON        CLEAR     69  69 100 CALM      30.05R
DYERSBURG      CLEAR     71  70  96 CALM      30.04S FOG
SOMERVILLE     PTCLDY    72  70  94 CALM      30.04R FOG
COVINGTON      FOG       68  68 100 CALM      30.04R VSB 1/4
BOLIVAR        CLEAR     68  68 100 CALM      30.04R FOG
PARIS          CLEAR     68  68 100 CALM      30.04R FOG
HUNTINGDON     CLEAR     70  70 100 CALM      30.04R FOG
LEXINGTON      FOG       68  68 100 CALM      30.05S VSB 1/4
SELMER         CLEAR     70  68  94 CALM      30.05S
SAVANNAH       MOCLDY    68  68 100 CALM      30.05R
$$

TNZ008-025-027-028-033-062-065-066-211200-
NORTH MIDDLE TENNESSEE

CITY           SKY/WX    TMP DP  RH WIND       PRES   REMARKS
NASHVILLE      CLEAR     70  68  93 CALM      30.08R
PORTLAND       CLEAR     68  66  94 CALM      30.07S
CLARKSVILLE    FOG       67  66  97 CALM      30.06S VSB 1/2
SMYRNA           N/A    N/A N/A N/A MISG        N/A
COOKEVILLE     PTCLDY    61  61 100 CALM      30.09S
GALLATIN       CLEAR     66  66 100 CALM      30.10R
CROSSVILLE     CLEAR     61  59  93 W3        30.14R FOG
$$

TNZ061-075-076-078-094-096-097-211200-
SOUTH MIDDLE TENNESSEE

CITY           SKY/WX    TMP DP  RH WIND       PRES   REMARKS
TULLAHOMA      CLEAR     64  63  94 CALM      30.11R
WINCHESTER     PTCLDY    64  64 100 CALM        N/A
MCMINNVILLE    CLEAR     64  64 100 CALM      30.10R
SHELBYVILLE    PTCLDY    68  68 100 E3        30.08R FOG
$$

TNZ017-018-042-046-047-211200-
NORTHEAST TENNESSEE

CITY           SKY/WX    TMP DP  RH WIND       PRES   REMARKS
TRI CITIES     FOG       58  58 100 CALM      30.14R VSB 1
ELIZABETHTON   CLEAR     59  57  94 CALM      30.14S
$$

TNZ012-013-036-069-073-074-211200-
CENTRAL EAST TENNESSEE

CITY           SKY/WX    TMP DP  RH WIND       PRES   REMARKS
KNOXVILLE      CLEAR     66  64  93 N6        30.09R
OAK RIDGE      FOG       65  64  97 CALM      30.12R VSB 1/4
DOWNTOWN KNOXV   N/A     64  64 100 CALM      30.09S FOG
GATLINBURG     CLEAR     61  61 100 CALM      30.10R
MORRISTOWN     CLOUDY    64  63  94 CALM      30.11R
JACKSBORO      FOG       63  63 100 CALM      30.15R VSB 1/4
$$

TNZ083-085-099-211200-
SOUTHEAST TENNESSEE

CITY           SKY/WX    TMP DP  RH WIND       PRES   REMARKS
CHATTANOOGA    PTCLDY    69  67  93 CALM      30.08R
DAYTON         MOSUNNY   64  64 100 CALM      30.08R
$$

SKY/WX REPORTED AS FAIR MEANS FEW OR NO CLOUDS BELOW
12 THOUSAND FEET.





USA.gov is the U.S. government's official web portal to all federal, state and local government web resources and services.